Weather History for Monroe, WI

Change the Weather History Date:

Monday, October 27, 2014

  Actual Average Record
Temperature  
Mean Temperature 62 °F -  
Max Temperature 73 °F 0 °F 73 °F (2014)
Min Temperature 51 °F - 21 °F (1997)
Degree Days  
Heating Degree Days 3    
Growing Degree Days 12 (Base 50)    
Moisture  
Dew Point 52 °F    
Average Humidity 68    
Maximum Humidity 88    
Minimum Humidity 44    
Precipitation  
Precipitation 0.00 in - - ()
Sea Level Pressure  
Sea Level Pressure 29.61 in    
Wind  
Wind Speed 13 mph (South)    
Max Wind Speed 22 mph    
Max Gust Speed 30 mph    
Visibility 10 miles    
Events Thunderstorm    
Averages and records for this station are not official NWS values.
T = Trace of Precipitation, MM = Missing Value Source: NWS Daily Summary

Daily Weather History Graph

Daily Weather History Graph

Search for Another Location

Airport:

Trip Planner

Search our weather history database for the weather conditions in past years. The results will help you decide how hot, cold, wet, or windy it might be!

Date:

Astronomy

Oct. 27, 2014 Rise Set
Actual Time 7:25 AM CDT 5:57 PM CDT
Civil Twilight 6:56 AM CDT 6:26 PM CDT
Nautical Twilight 6:23 AM CDT 6:59 PM CDT
Astronomical Twilight 5:51 AM CDT 7:32 PM CDT
Moon 11:03 AM CDT (10/27) 9:01 PM CDT (10/27)
Length of Visible Light 11h 29m
Length of Day
10h 31m
Waxing Crescent, 15% of the Moon is Illuminated
Oct 27
Waxing Crescent
Oct 30
First Quarter
Nov 6
Full
Nov 14
Last Quarter
Nov 22
New

Hourly Weather History & Observations

Time (CDT) Temp. Dew Point Humidity Pressure Visibility Wind Dir Wind Speed Gust Speed Precip Events Conditions
12:15 AM 53.6 °F 32.0 °F 44% 29.78 in 10.0 mi ESE 10.4 mph - N/A   Mostly Cloudy
12:35 AM 51.8 °F 32.0 °F 47% 29.76 in 10.0 mi SE 10.4 mph - N/A   Mostly Cloudy
12:55 AM 53.6 °F 32.0 °F 44% 29.76 in 10.0 mi ESE 9.2 mph - N/A   Overcast
1:15 AM 53.6 °F 33.8 °F 47% 29.75 in 10.0 mi ESE 10.4 mph - N/A Thunderstorm Overcast
1:35 AM 53.6 °F 33.8 °F 47% 29.73 in 10.0 mi SE 9.2 mph - N/A   Overcast
1:55 AM 53.6 °F 33.8 °F 47% 29.73 in 10.0 mi SE 11.5 mph - N/A   Overcast
2:15 AM 53.6 °F 35.6 °F 51% 29.72 in 10.0 mi SE 13.8 mph 19.6 mph N/A   Overcast
2:35 AM 55.4 °F 35.6 °F 47% 29.71 in 10.0 mi SE 16.1 mph 19.6 mph N/A   Overcast
2:55 AM 55.4 °F 37.4 °F 51% 29.70 in 10.0 mi SE 15.0 mph 19.6 mph N/A   Scattered Clouds
3:15 AM 53.6 °F 37.4 °F 54% 29.69 in 10.0 mi SSE 13.8 mph 20.7 mph N/A   Clear
3:35 AM 53.6 °F 37.4 °F 54% 29.68 in 10.0 mi SE 11.5 mph - N/A   Clear
3:55 AM 53.6 °F 39.2 °F 58% 29.67 in 10.0 mi SSE 11.5 mph - N/A   Clear
4:15 AM 51.8 °F 39.2 °F 62% 29.66 in 10.0 mi SSE 12.7 mph - N/A   Clear
4:35 AM 53.6 °F 41.0 °F 62% 29.65 in 10.0 mi SSE 12.7 mph - N/A   Clear
4:55 AM 53.6 °F 42.8 °F 67% 29.65 in 10.0 mi SSE 12.7 mph - N/A   Scattered Clouds
5:15 AM 53.6 °F 42.8 °F 67% 29.65 in 10.0 mi South 13.8 mph - N/A   Scattered Clouds
5:35 AM 53.6 °F 44.6 °F 72% 29.64 in 10.0 mi South 13.8 mph - N/A   Scattered Clouds
5:55 AM 53.6 °F 44.6 °F 72% 29.64 in 10.0 mi South 12.7 mph - N/A   Clear
6:15 AM 53.6 °F 46.4 °F 77% 29.63 in 10.0 mi South 12.7 mph - N/A   Clear
6:35 AM 53.6 °F 46.4 °F 77% 29.63 in 10.0 mi South 12.7 mph - N/A   Clear
6:55 AM 53.6 °F 48.2 °F 82% 29.63 in 10.0 mi South 11.5 mph - N/A   Clear
7:10 AM 53.6 °F 50.0 °F 88% 29.62 in 10.0 mi South 12.7 mph - N/A   Clear
7:35 AM 53.6 °F 50.0 °F 88% 29.63 in 10.0 mi South 11.5 mph - N/A   Clear
7:55 AM 55.4 °F 51.8 °F 88% 29.63 in 10.0 mi South 11.5 mph - N/A   Clear
8:15 AM 57.2 °F 53.6 °F 88% 29.63 in 10.0 mi South 11.5 mph - N/A   Clear
8:35 AM 59.0 °F 55.4 °F 88% 29.62 in 10.0 mi South 13.8 mph - N/A   Clear
8:50 AM 60.8 °F 55.4 °F 82% 29.63 in 10.0 mi South 13.8 mph - N/A   Clear
9:15 AM 62.6 °F 57.2 °F 82% 29.62 in 10.0 mi South 16.1 mph 19.6 mph N/A   Clear
9:35 AM 62.6 °F 57.2 °F 82% 29.61 in 10.0 mi South 16.1 mph 21.9 mph N/A   Clear
9:55 AM 64.4 °F 59.0 °F 83% 29.61 in 10.0 mi South 17.3 mph 21.9 mph N/A   Clear
10:15 AM 64.4 °F 59.0 °F 83% 29.61 in 10.0 mi SSW 16.1 mph 23.0 mph N/A   Clear
10:35 AM 64.4 °F 59.0 °F 83% 29.61 in 10.0 mi SSW 18.4 mph 24.2 mph N/A   Clear
10:55 AM 64.4 °F 59.0 °F 83% 29.60 in 10.0 mi SSW 16.1 mph - N/A   Clear
11:15 AM 68.0 °F 59.0 °F 73% 29.60 in 10.0 mi SSW 15.0 mph 21.9 mph N/A   Clear
11:55 AM 68.0 °F 59.0 °F 73% 29.58 in 10.0 mi SSW 12.7 mph - N/A   Clear
12:15 PM 69.8 °F 59.0 °F 68% 29.58 in 10.0 mi SSW 17.3 mph 23.0 mph N/A   Clear
12:35 PM 71.6 °F 59.0 °F 64% 29.58 in 10.0 mi SSW 15.0 mph 18.4 mph N/A   Scattered Clouds
12:55 PM 71.6 °F 59.0 °F 64% 29.58 in 10.0 mi SW 16.1 mph 20.7 mph N/A   Scattered Clouds
1:15 PM 73.4 °F 59.0 °F 61% 29.56 in 10.0 mi SW 17.3 mph 21.9 mph N/A   Mostly Cloudy
1:35 PM 73.4 °F 59.0 °F 61% 29.56 in 10.0 mi SW 15.0 mph - N/A   Scattered Clouds
1:55 PM 73.4 °F 59.0 °F 61% 29.56 in 10.0 mi SSW 13.8 mph 25.3 mph N/A   Mostly Cloudy
2:15 PM 73.4 °F 59.0 °F 61% 29.54 in 10.0 mi SSW 13.8 mph 20.7 mph N/A   Mostly Cloudy
2:35 PM 73.4 °F 59.0 °F 61% 29.55 in 10.0 mi SSW 11.5 mph - N/A   Mostly Cloudy
2:55 PM 73.4 °F 59.0 °F 61% 29.54 in 10.0 mi South 12.7 mph 24.2 mph N/A   Scattered Clouds
3:15 PM 73.4 °F 59.0 °F 61% 29.54 in 10.0 mi SSW 16.1 mph 21.9 mph N/A   Scattered Clouds
3:35 PM 73.4 °F 59.0 °F 61% 29.53 in 10.0 mi SSW 18.4 mph 23.0 mph N/A   Clear
3:55 PM 73.4 °F 59.0 °F 61% 29.53 in 10.0 mi SSW 16.1 mph 21.9 mph N/A   Clear
4:15 PM 73.4 °F 59.0 °F 61% 29.53 in 10.0 mi South 18.4 mph 24.2 mph N/A   Clear
4:35 PM 73.4 °F 57.2 °F 57% 29.53 in 10.0 mi SSW 21.9 mph 29.9 mph N/A   Clear
4:55 PM 73.4 °F 57.2 °F 57% 29.54 in 10.0 mi SSW 16.1 mph 27.6 mph N/A   Clear
5:15 PM 71.6 °F 57.2 °F 60% 29.55 in 10.0 mi SW 13.8 mph - N/A   Clear
5:35 PM 69.8 °F 57.2 °F 64% 29.55 in 10.0 mi SSW 10.4 mph - N/A   Clear
5:55 PM 69.8 °F 57.2 °F 64% 29.56 in 10.0 mi SSW 11.5 mph - N/A   Clear
6:15 PM 68.0 °F 57.2 °F 68% 29.57 in 10.0 mi SSW 11.5 mph - N/A   Scattered Clouds
6:35 PM 68.0 °F 57.2 °F 68% 29.57 in 10.0 mi SSW 13.8 mph 20.7 mph N/A   Mostly Cloudy
6:55 PM 68.0 °F 57.2 °F 68% 29.57 in 10.0 mi SSW 15.0 mph 19.6 mph N/A   Overcast
7:15 PM 68.0 °F 57.2 °F 68% 29.58 in 10.0 mi SSW 12.7 mph - N/A   Overcast
7:35 PM 68.0 °F 57.2 °F 68% 29.58 in 10.0 mi South 10.4 mph - N/A   Overcast
7:55 PM 66.2 °F 57.2 °F 73% 29.57 in 10.0 mi SSW 10.4 mph - N/A   Overcast
8:15 PM 64.4 °F 55.4 °F 73% 29.57 in 10.0 mi SSW 11.5 mph - N/A   Mostly Cloudy
8:35 PM 64.4 °F 55.4 °F 73% 29.57 in 10.0 mi SSW 10.4 mph - N/A   Mostly Cloudy
8:55 PM 64.4 °F 55.4 °F 73% 29.58 in 10.0 mi SSW 11.5 mph - N/A   Mostly Cloudy
9:15 PM 64.4 °F 55.4 °F 73% 29.58 in 10.0 mi SSW 10.4 mph - N/A   Mostly Cloudy
9:35 PM 64.4 °F 55.4 °F 73% 29.58 in 10.0 mi SSW 10.4 mph - N/A   Overcast
9:55 PM 64.4 °F 55.4 °F 73% 29.58 in 10.0 mi SSW 12.7 mph 18.4 mph N/A   Scattered Clouds
10:15 PM 64.4 °F 55.4 °F 73% 29.59 in 10.0 mi SSW 12.7 mph - N/A   Mostly Cloudy
10:35 PM 64.4 °F 55.4 °F 73% 29.59 in 10.0 mi SW 11.5 mph - N/A   Overcast
10:55 PM 64.4 °F 57.2 °F 77% 29.59 in 10.0 mi WSW 11.5 mph - N/A   Overcast
11:15 PM 64.4 °F 57.2 °F 77% 29.60 in 10.0 mi WSW 11.5 mph - N/A   Mostly Cloudy
11:35 PM 64.4 °F 57.2 °F 77% 29.60 in 10.0 mi West 17.3 mph 23.0 mph N/A   Mostly Cloudy
11:50 PM 64.4 °F 55.4 °F 73% 29.60 in 10.0 mi West 15.0 mph 25.3 mph N/A   Mostly Cloudy